Location: Aldenham
(51.6667°N, 0.3500°W)
Time: 01:33:38
(UTC+00:00)

Altair - Pass Details

Date: 16 February 2026
Orbit: 1502 x 1682 km, 47.2° (Epoch: 10 March)

Event Time Altitude Azimuth Distance (km) Brightness Sun altitude
Rises 09:58:00 0° 281° (W) 4,706 9.6 19.5°
Reaches altitude 10° 10:01:05 10° 277° (W) 3,744 9.2 19.8°
Maximum altitude 10:10:11 53° 204° (SSW) 1,905 8.7 20.6°
Drops below altitude 10° 10:19:36 10° 132° (SE) 3,873 11.2 21.3°
Sets 10:22:52 0° 127° (SE) 4,878 11.3 21.6°
